Home   Weather   Mexicali   Past weeks

Flag for Mexico Past Weather in Mexicali, Baja California, Mexico — Yesterday and Last 2 Weeks

Now
108 °F

Passing clouds.


Feels Like: 111 °F
Forecast: 83 / 108 °F
Wind: 16 mph from Southeast

Location: Imperial County Airport

Current Time: Aug 31, 2016 at 7:01:19 PM

Latest Report: Aug 31, 2016 at 5:53 PM


Visibility: 10 mi

Pressure: 29.66 "Hg

Humidity: 23%

Dew Point: 62 °F

Location of MexicaliLocation

Past Weather in Mexicali — Graph

°F

Mexicali Temperature Yesterday

Maximum temperature yesterday: 114 °F (at 3:53 PM)
Minimum temperature yesterday: 83 °F (at 6:53 AM)
Average temperature yesterday: 99 °F

High & Low Weather Summary for the Past Weeks

 TemperatureHumidityPressure
High115 °F (Aug 16, 5:53 PM)74% (Aug 26, 2:53 AM)29.93 "Hg (Aug 26, 2:53 AM)
Low75 °F (Aug 27, 6:53 AM)8% (Aug 16, 5:53 PM)29.63 "Hg (Aug 30, 6:53 PM)
Average95 °F31%29.76 "Hg
* Reported Aug 16 5:53 PM — Aug 31 5:53 PM, Mexicali, Weather by CustomWeather, © 2016

Note: Actual official high and low records may vary slightly from our data, if they occured in-between our weather recording intervals... More about our weather records

Advertising

Mexicali Weather History for the Previous 24 Hours

Scroll right to see more
 ConditionsComfort  
Time TempWeatherWind HumidityBarometerVisibility
5:53 PM
Wed, Aug 31
108 °FPassing clouds.16 mph23%29.66 "Hg10 mi
4:53 PM110 °FSunny.7 mph19%29.66 "Hg10 mi
3:53 PM111 °FSunny.7 mph19%29.67 "Hg10 mi
2:53 PM110 °FSunny.13 mph21%29.68 "Hg10 mi
1:53 PM109 °FSunny.10 mph24%29.71 "Hg10 mi
12:53 PM108 °FSunny.9 mph26%29.73 "Hg10 mi
11:53 AM104 °FSunny.6 mph29%29.75 "Hg10 mi
10:53 AM101 °FSunny.5 mph36%29.77 "Hg10 mi
9:53 AM100 °FSunny.7 mph32%29.76 "Hg10 mi
8:53 AM97 °FSunny.6 mph29%29.75 "Hg10 mi
7:53 AM92 °FSunny.5 mph23%29.74 "Hg10 mi
6:53 AM86 °FClear.13 mph26%29.72 "Hg10 mi
5:53 AM82 °FClear.6 mph31%29.69 "Hg10 mi
4:53 AM85 °FClear.No wind26%29.69 "Hg10 mi
3:53 AM89 °FClear.No wind22%29.68 "Hg10 mi
2:53 AM86 °FClear.3 mph26%29.68 "Hg10 mi
1:53 AM90 °FClear.7 mph23%29.68 "Hg10 mi
12:53 AM88 °FClear.7 mph25%29.69 "Hg10 mi
11:53 PM
Tue, Aug 30
91 °FClear.6 mph24%29.69 "Hg10 mi
10:53 PM93 °FClear.7 mph22%29.69 "Hg10 mi
9:53 PM98 °FClear.7 mph20%29.67 "Hg10 mi
8:53 PM103 °FClear.6 mph15%29.66 "Hg7 mi
8:00 PM106 °FPassing clouds.9 mph15%29.64 "Hg9 mi
7:53 PM105 °FSunny.8 mph14%29.64 "Hg10 mi
Weather by CustomWeather, © 2016

See weather overviewHow to use our weather pages